Volver al catálogo

H-2A R/B

ActivoHEO
NORAD 41037·ROCKET BODY·🇯🇵 Japan

Lanzado Nov 24, 2015 desde Tanegashima Space Center

Loading…

Próximos Pases (próximas 24 horas)

TLE

ActualizadoSource: Space-Track

Época: Sep 13, 2026, 19:56 UTC

1 41037U 15068B   26256.83085489 -.00000163  00000-0  00000-0 0  9992
2 41037  19.6094  53.5624 6469577 321.1102   6.6596  2.12564327 83932

Sigue H-2A R/B en tiempo real con AllMySat

Download on the App Store